User: anonymous   Login
Location: Unspecified
(0.0000°N, 0.0000°E)
Time: 02:21:42
(UTC+00:00)
Language:

Uribyol 2 - Orbit

View from above orbital plane
View from above orbital plane
View from above satellite
View from above satellite

Ground track
Ground track

The orbit data is extracted from the following two-line orbital elements,

1 22828U 93061F   23088.07730682  .00000314  00000-0  13696-3 0  9991
2 22828  98.8493 128.3821 0008885 250.0159 110.0066 14.30977482507552
Epoch (UTC): 29 March 2023 01:51:19
Eccentricity: 0.0008885
inclination: 98.8493°
perigee height: 782 km
apogee height: 795 km
right ascension of ascending node: 128.3821°
argument of perigee: 250.0159°
revolutions per day: 14.30977482
mean anomaly at epoch: 110.0066°
orbit number at epoch: 50755

The dashed part of the orbit path shows where the satellite is in the earth's shadow,  

DLR